Regional Weather Roundup
Issued by NWS Kansas City/Pleasant Hill, MO

Home | Current Version | Previous Version | Text Only | Print | Product List | Glossary On
Versions: 1 2 3 4 5 6 7 8 9 10 11 12 13 14 15 16 17 18 19 20 21 22 23 24 25 26 27 28 29 30 31 32 33 34 35 36 37 38 39 40 41 42 43 44 45 46 47 48 49 50
000
ASUS43 KEAX 252010
RWREAX

WEATHER ROUNDUP FOR EASTERN KANSAS AND NORTHWEST MISSOURI
NATIONAL WEATHER SERVICE KANSAS CITY/PLEASANT HILL MO
300 PM CDT TUE APR 25 2017

KSZ040-057-103>105-MOZ028-029-037-043-252100-
...KANSAS CITY METROPOLITAN AREA...

CITY           SKY/WX    TMP DP  RH WIND       PRES   REMARKS
K.C. INTL      CLOUDY    70  55  59 S8        29.41F
K.C. DOWNTOWN  CLOUDY    73  56  54 S8        29.39F
LEES SUMMIT    CLOUDY    73  56  54 SW10      29.42F
OLATHE - IXD   CLOUDY    71  56  58 S14       29.42S
OLATHE - OJC   CLOUDY    70  57  63 S10       29.41F
LAWRENCE       CLOUDY    71  57  61 S7        29.41R

$$

MOZ001>008-011>017-020>025-030>033-038>040-044>046-053-054-252100-
...NORTHERN AND CENTRAL MISSOURI...

CITY           SKY/WX    TMP DP  RH WIND       PRES   REMARKS
ST. JOSEPH     CLOUDY    70  55  59 S8        29.41F
MOSBY          CLOUDY    72  52  49 S7        29.41F
WHITEMAN AFB   PTSUNNY   79  56  44 SW16      29.40F
CLINTON        MOSUNNY   79  57  47 S12G21    29.42F
SEDALIA        CLOUDY    80  55  42 S18G26    29.43S
WARSAW         NOT AVBL
CHILLICOTHE      N/A     74  53  48 S9        29.42F
KIRKSVILLE     PTSUNNY   77  52  41 SE21      29.44F

$$

MOZ041-047>049-056>058-063>065-088>090-097-252100-
...EASTERN AND SOUTHERN MISSOURI...

CITY           SKY/WX    TMP DP  RH WIND       PRES   REMARKS
ST. LOUIS INTL PTSUNNY   82  51  34 SE23G33   29.51F
SPIRIT OF STL  MOSUNNY   81  45  28 SE20G33   29.48F
COLUMBIA       MOSUNNY   81  54  39 S22G32    29.43F
JEFFERSON CITY CLOUDY    84  51  31 S21G35    29.42F
ROLLA          SUNNY     79  50  36 S22G33    29.46F
OSAGE BEACH    MOSUNNY   80  54  40 S21       29.45F
SPRINGFIELD    MOSUNNY   81  58  45 S20G28    29.43F
BRANSON        PTSUNNY   77  55  47 S15G24    29.48F
JOPLIN         MOSUNNY   79  60  52 S18       29.42S
WEST PLAINS    SUNNY     77  51  40 S18G26    29.54F

$$

IAZ060-094-KSZ022-034>040-054-083-096-NEZ052-066-093-252100-
...KANSAS...SOUTHEAST NEBRASKA AND IOWA...

CITY           SKY/WX    TMP DP  RH WIND       PRES   REMARKS
TOPEKA         CLOUDY    70  55  59 SW6       29.40R
MANHATTAN      CLOUDY    65  52  62 VRB7      29.43R
EMPORIA        CLOUDY    71  57  61 W3        29.39S
CHANUTE        CLOUDY    74  57  55 S13       29.41S
WICHITA        CLOUDY    71  57  61 NW12      29.41R
OMAHA          CLOUDY    52  43  71 N17       29.49S
LINCOLN        CLOUDY    50  41  71 N21       29.53R
FALLS CITY     CLOUDY    66  54  65 W5        29.41S
LAMONI         CLOUDY    70  51  51 S8        29.42F
DES MOINES     CLOUDY    73  48  41 SE14      29.42F

$$




USA.gov is the U.S. government's official web portal to all federal, state and local government web resources and services.